Location: Peterborough
(44.3091°N, 78.3197°W)
Time: 17:35:10
(UTC-04:00)

Transit 4A - Pass Details

Date: 30 March 2023
Orbit: 864 x 980 km, 66.8° (Epoch: 04 June)

Event Time Altitude Azimuth Distance (km) Brightness Sun altitude
Rises 15:01:03 0° 328° (NNW) 3,567 10.8 43.6°
Reaches altitude 10° 15:03:33 10° 330° (NNW) 2,638 10.2 43.4°
Maximum altitude 15:09:43 82° 58° (ENE) 963 8.6 42.7°
Drops below altitude 10° 15:16:03 10° 146° (SE) 2,697 10.6 41.9°
Sets 15:18:37 0° 147° (SSE) 3,650 11.2 41.6°
